ATLAS 5 CENTAUR DEB, 44662

Orbit data source: Space-Track

ATLAS 5 CENTAUR DEB, 44662 is space debris in HEO originally from a launch on Wed, 17 Oct 2018 UTC launched from the Air Force Eastern Test Range (AFETR). Debris objects in space refer to the collection of defunct objects orbiting the Earth. Examples of debris include non-operational satellites, rocket bodies, and fragments generated from explosions, collisions, or faulty payload assembly.

Loading next visibility...
Identifier
44662, 2018-079Y
Orbit
HEO
Country
Flag of USUS
Related business
Flag of USUnited Launch Alliance/Lockheed Martin (US)
Manufacturer
ULA Decatur
Mission
Spacecraft
Bus & Motor
Unknown
Mass
Unknown
Launch date (UTC)
2018-10-17 (8 years ago)
Launch vehicle
Unknown
Launch site
Air Force Eastern Test Range (AFETR)
Object type
Payload
Rocket body
Debris
Shape & HBR
Unknown shape, 1.1 m
Radar Cross Section
RCS unknown

Expand to show TLE details & history
Last TLE update: 1 day ago

TLE from 1 day ago
0 ATLAS 5 CENTAUR DEB
1 44662U 18079Y   26124.25629133 -.00000134  00000-0  00000+0 0  9991
2 44662  13.2664  31.8287 4703529 325.1606  11.6599  1.84815583 46743
Epoch: 2026-05-04T06:09Z
TLE epoch observation values (Epoch: 2026-05-04T06:09:03.570Z)
Latitude
-0.00005°
Longitude
77.36601°
Altitude
9,377.151 km
Speed
6.032 km/s
True Right ascension
02h 07m 06s
True Declination
0° 00' 00"
Sunlit
Object was in daylight at epoch
Visualization orbit readout
Latitude
Unknown
Longitude
Unknown
Altitude
Unknown
Speed
Unknown
Apparent Right ascension
Unknown
Apparent Declination
Unknown
Sunlit
N/A
Visualization observer readout
Local Sidereal Time
17:54:58
Azimuth
Unknown
Elevation
Unknown
Doppler factor
Unknown
Orbital elements
Apogee altitude
34,866.158 km
Perigee altitude
8,478.787 km
Semi-major axis
28,050.609 km
Eccentricity
0.47035
Inclination
13.2664°
RAAN
31.8287°
Arg. of periapsis
325.1606°
True anomaly
35.21027°
Mean anomaly
11.6599°
Eccentric anomaly
21.56548°
Mean motion
0.46199 °/min
Orbital period
779.24 mins
BSTAR
0
Loading maneuver chart data...
Computing Atmospheric mass density...

Documentation

Showing up to 5 results
|